User: anonymous   Login
Location: Gazon
(48.1318°N, 1.2708°W)
Time: 04:42:45
(UTC+00:00)
Language:

Resurs 1-3 - Orbit

View from above orbital plane
View from above orbital plane
View from above satellite
View from above satellite

Ground track
Ground track

The orbit data is extracted from the following two-line orbital elements,

1 23342U 94074A   20337.36380683  .00000226  00000-0  37198-4 0  9992
2 23342  97.9077  23.7923 0001398 130.4196 229.7137 14.79359676404417
Epoch (UTC): 02 December 2020 08:43:52
Eccentricity: 0.0001398
inclination: 97.9077°
perigee height: 630 km
apogee height: 632 km
right ascension of ascending node: 23.7923°
argument of perigee: 130.4196°
revolutions per day: 14.79359676
mean anomaly at epoch: 229.7137°
orbit number at epoch: 40441

The dashed part of the orbit path shows where the satellite is in the earth's shadow,  

DLR